User: anonymous   Login
Location: Drocourt
(49.0571°N, 1.7669°E)
Time: 15:48:54
(UTC+00:00)
Language:

S-56A Canister/Altair - Orbit

View from above orbital plane
View from above orbital plane
View from above satellite
View from above satellite

Ground track
Ground track

The orbit data is extracted from the following two-line orbital elements,

1 00082U 61004B   24103.95713965  .00000681  00000-0  61025-3 0  9998
2 00082  38.8570  71.2028 1164826 339.0936  16.5636 12.26646190979104
Epoch (UTC): 12 April 2024 22:58:16
Eccentricity: 0.1164826
inclination: 38.8570°
perigee height: 638 km
apogee height: 2489 km
right ascension of ascending node: 71.2028°
argument of perigee: 339.0936°
revolutions per day: 12.26646190
mean anomaly at epoch: 16.5636°
orbit number at epoch: 97910

The dashed part of the orbit path shows where the satellite is in the earth's shadow,  

DLR